sat.trackr.live / text

‹ back to catalog

STARLINK-35836

NORAD 66571 · 2025-268Q

PAYLOAD ACTIVE UNKNOWN

§ Identity

Operator
Country
US
Launch date
2025-11-21
Launch site
AFETR
Launch vehicle
Mass (kg)
RCS (m²)

Purposes: comms

External: N2YO · Heavens-Above · Gunter

§ Orbital elements

Epoch: 2026-05-25T01:12:50.067072Z

Period
94.27 min
Inclination
43.0026°
Eccentricity
0.0000770
Mean motion
15.27590251 rev/d
Perigee alt
482.5 km
Apogee alt
483.5 km
Semi-major
6,861.2 km
B*
5.1249e-4
RAAN
276.2107°
Arg perigee
310.8451°
Mean anomaly
49.2334°
Rev number
2,963

§ Raw data

STARLINK-358361 66571U 25268Q   26145.05057948  .00013871  00000+0  51249-3 0  99972 66571  43.0026 276.2107 0000770 310.8451  49.2334 15.27590251 29635

JSON: /api/v1/satellites/66571 · /tle

For live sub-satellite position, see the globe view (requires WebGL).

§ Visibility from observer

Set your observer location to see the next 7 days of passes ≥ 10°. The values pass through the URL so the page stays shareable.

No JS? Fill the form by hand. The geolocation button needs JavaScript.